sat.trackr.live / text

‹ back to catalog

CANVAS

NORAD 68635 · 2026-074J

PAYLOAD ACTIVE UNKNOWN

§ Identity

Operator
Country
US
Launch date
2026-04-07
Launch site
AFWTR
Launch vehicle
Mass (kg)
RCS (m²)

External: N2YO · Heavens-Above · Gunter

§ Orbital elements

Epoch: 2026-09-20T00:21:00.707328Z

Period
94.30 min
Inclination
60.0226°
Eccentricity
0.0037283
Mean motion
15.27067471 rev/d
Perigee alt
459.0 km
Apogee alt
510.2 km
Semi-major
6,862.7 km
B*
3.8097e-4
RAAN
173.2381°
Arg perigee
90.0969°
Mean anomaly
270.4385°
Rev number
2,526

§ Raw data

CANVAS1 68635U 26074J   26263.01459152  .00010117  00000+0  38097-3 0  99922 68635  60.0226 173.2381 0037283  90.0969 270.4385 15.27067471 25261

JSON: /api/v1/satellites/68635 · /tle

For live sub-satellite position, see the globe view (requires WebGL).

§ Visibility from observer

Set your observer location to see the next 7 days of passes ≥ 10°. The values pass through the URL so the page stays shareable.

No JS? Fill the form by hand. The geolocation button needs JavaScript.

§ Radio — SatNOGS DB

ModeDescriptionDownlinkUplink
GMSK AstroDev Li-2 437.250 MHz 437.250 MHz
OQPSK Clyde Space Pulsar HSTX 2.405 GHz
AFSK Mode U/U - AFSK1k2 - Digipeater - AX.25 (inactive) 437.250 MHz 437.250 MHz

3 transmitters · refreshed weekly from db.satnogs.org